Погода в Курилове

Россия / Владимирская область     56°05′32″N   39°58′34″E
темп.,
°C
ветер,
м/с
пор.,
м/с
влажн.,
%
обл.,
%
осадки,
мм/ч
давл.,
гПа
погр.,
м
26 февраля, пт
пт2600:00+1з3896100 0.0 1012266
03:00+1юз3699100 0.1 1011155
06:00+1юз36100100 1.1 1008198
09:00+2зюз411100100 2.2 1006341
12:00+2зюз51399100 1.8 1003493
15:00+2зюз514100100 2.3 1001464
18:00+2з5149190 0.4 1000754
21:00+1з6148995 0.5 1000869
27 февраля, сб
сб2700:00+1з61494100 0.0 998883
03:00+1з61296100 0.1 999808
06:00+1з61295100 0.3 998917
09:00−8ссз61188100 1.6 1000663
12:00−9ссз61087100 0.1 1003694
15:00−10ссз61088100 0.1 1006686
18:00−11с51190100 0.1 1009636
21:00−12с41192100 0.1 1011510
28 февраля, вс
вс2800:00−13ссз499495 0.0 1013311
03:00−15ссз389462 0.0 1015233
06:00−15ссз369520 0.0 1015171
09:00−12ссз379253 0.1 1017400
12:00−9с368997 0.0 1017522
15:00−7ссз488898 0.1 1018687
18:00−9с249497 0.1 101896
21:00−11с239689 0.1 102127
1 марта, пн
пн100:00−11с229796 0.1 102225
03:00−12с119698 0.1 102321
06:00−11зсз129897 0.1 102421
09:00−8зсз239594 0.1 102596
12:00−3зсз358690 0.0 1025726
15:00−3з468795 0.1 1024728
18:00−5юз3793100 0.0 1023171
21:00−3юз4995100 0.1 1021353
2 марта, вт
вт200:00−2зюз51196100 0.1 1018457
03:000зюз41094100 0.3 1016469
06:00+1з51198100 0.1 1014495
09:00+1зсз51199100 0.3 1012561
12:00+1зсз51099100 0.3 1012537
15:00+1сз51099100 0.7 1011676
18:000зсз4119380 0.2 1011559
21:00−2зсз4119589 0.3 1012513